"Pseudo-MPEC" for ST25E27

Created 2025 Jun 17 14:35:06 UT using Find_Orb

Click here for an explanation of pseudo-MPECs

 
 Astrometry: 
     ST25E27* C2025 05 31.36480715 40 36.669+15 19 18.61   ~5VIl 19.2 GVNEOCPU68
     ST25E27  C2025 05 31.36858615 40 36.386+15 19 10.64   ~5VIl 19.2 GVNEOCPU68
     ST25E27  C2025 05 31.38518915 40 34.909+15 18 45.06   ~5VIl 19.6 GVNEOCPU68
     ST25E27  C2025 05 31.38898015 40 34.626+15 18 36.84   ~5VIl 19.6 GVNEOCPU68

Station data:
(U68) JPL SynTrack Robotic Telescope, Auberry  (N37.070387 W119.412990)
   US/California.  Observers N. Saini, C. Zhai, R. Trahan, M. Zhan, M. Shao.
   0.28-m f/2.2 Schmidt + CCD.

Orbital elements:  ST25E27
   Perihelion 2025 Mar 7.83264 +/- 74.4 TT = 19:59:00 (JD 2460742.33264)
Epoch 2025 May 31.0 TT = JDT 2460826.5   Earth MOID: 0.0924   Ve: 0.0517
M  40.00975042 +/- 38               Ma: 0.0281                   AutoNEOCP
n   0.47535945 +/- 0.26             Peri.  298.31063 +/- 100
a   1.62600280 +/- 0.593            Node   190.41039 +/- 58
e   0.6294874 +/- 0.187             Incl.   12.06545 +/- 10
P   2.073/757.307d         H 19.67  G  0.15   U 11.9  SR
q 0.60245447 +/- 0.412    Q 2.64955112 +/- 1.54           (J2000 ecliptic)
From 4 observations 2025 May 31 (34.8 min); mean residual 0".68
Residuals in arcseconds: 
250531 U68  .27-  .66+    250531 U68  .34-  1.1+    
250531 U68  .36+  1.0-    250531 U68  .26+  .78-    

Ephemerides (geocentric):
Date (UTC) HH   RA             Dec           delta  r     elong  mag " sig PA
---- --------  ------------   ------------  ------ ------ -----  --- --------
2025 06 17 15  15 28 57.167   +08 37 01.99  .63129 1.5239 134.0 20.8  38d  98
2025 06 17 16  15 28 56.729   +08 36 11.97  .63185 1.5243 134.0 20.8  38d  98
2025 06 17 17  15 28 56.295   +08 35 21.97  .63241 1.5246 134.0 20.8  38d  98
2025 06 17 18  15 28 55.866   +08 34 32.00  .63297 1.5250 134.0 20.8  38d  98
2025 06 17 19  15 28 55.442   +08 33 42.07  .63353 1.5254 133.9 20.9  38d  98
2025 06 17 20  15 28 55.022   +08 32 52.16  .63410 1.5258 133.9 20.9  38d  98
2025 06 17 21  15 28 54.607   +08 32 02.28  .63466 1.5261 133.9 20.9  38d  98
2025 06 17 22  15 28 54.197   +08 31 12.44  .63522 1.5265 133.9 20.9  38d  98
2025 06 17 23  15 28 53.791   +08 30 22.63  .63578 1.5269 133.9 20.9  38d  98
2025 06 18 00  15 28 53.390   +08 29 32.84  .63634 1.5273 133.8 20.9  38d  98
2025 06 18 01  15 28 52.994   +08 28 43.09  .63690 1.5276 133.8 20.9  38d  98
2025 06 18 02  15 28 52.602   +08 27 53.36  .63746 1.5280 133.8 20.9  38d  99
2025 06 18 03  15 28 52.215   +08 27 03.67  .63803 1.5284 133.8 20.9  38d  99
2025 06 18 04  15 28 51.832   +08 26 14.01  .63859 1.5288 133.7 20.9  38d  99
2025 06 18 05  15 28 51.454   +08 25 24.38  .63915 1.5291 133.7 20.9  38d  99
2025 06 18 06  15 28 51.081   +08 24 34.77  .63971 1.5295 133.7 20.9  38d  99
2025 06 18 07  15 28 50.712   +08 23 45.20  .64028 1.5299 133.7 20.9  38d  99
2025 06 18 08  15 28 50.348   +08 22 55.66  .64084 1.5302 133.6 20.9  38d  99
2025 06 18 09  15 28 49.988   +08 22 06.15  .64140 1.5306 133.6 20.9  38d  99
2025 06 18 10  15 28 49.633   +08 21 16.67  .64197 1.5310 133.6 20.9  38d  99
2025 06 18 11  15 28 49.283   +08 20 27.21  .64253 1.5314 133.6 20.9  38d  99
2025 06 18 12  15 28 48.937   +08 19 37.79  .64309 1.5317 133.6 20.9  38d  99
2025 06 18 13  15 28 48.595   +08 18 48.40  .64366 1.5321 133.5 20.9  38d  99
2025 06 18 14  15 28 48.259   +08 17 59.04  .64422 1.5325 133.5 20.9  38d  99
2025 06 18 15  15 28 47.926   +08 17 09.70  .64479 1.5329 133.5 20.9  38d  99
2025 06 18 16  15 28 47.599   +08 16 20.40  .64535 1.5332 133.5 20.9  38d  99
2025 06 18 17  15 28 47.275   +08 15 31.13  .64591 1.5336 133.4 20.9  38d  99
2025 06 18 18  15 28 46.957   +08 14 41.88  .64648 1.5340 133.4 20.9  38d  99
2025 06 18 19  15 28 46.642   +08 13 52.67  .64704 1.5344 133.4 20.9  38d  99
2025 06 18 20  15 28 46.333   +08 13 03.48  .64761 1.5347 133.4 20.9  38d  99
2025 06 18 21  15 28 46.027   +08 12 14.33  .64818 1.5351 133.3 20.9  38d  99
2025 06 18 22  15 28 45.727   +08 11 25.20  .64874 1.5355 133.3 20.9  38d  99
2025 06 18 23  15 28 45.430   +08 10 36.10  .64931 1.5359 133.3 20.9  38d  99
2025 06 19 00  15 28 45.139   +08 09 47.03  .64987 1.5362 133.3 20.9  38d  99
2025 06 19 01  15 28 44.851   +08 08 58.00  .65044 1.5366 133.3 20.9  38d  99
2025 06 19 02  15 28 44.569   +08 08 08.99  .65101 1.5370 133.2 20.9  38d  99
2025 06 19 03  15 28 44.290   +08 07 20.01  .65157 1.5373 133.2 20.9  38d  99
2025 06 19 04  15 28 44.016   +08 06 31.06  .65214 1.5377 133.2 20.9  38d  99
2025 06 19 05  15 28 43.747   +08 05 42.13  .65271 1.5381 133.2 20.9  38d  99
2025 06 19 06  15 28 43.482   +08 04 53.24  .65327 1.5385 133.1 20.9  38d  99
2025 06 19 07  15 28 43.221   +08 04 04.38  .65384 1.5388 133.1 20.9  38d  99
2025 06 19 08  15 28 42.965   +08 03 15.54  .65441 1.5392 133.1 20.9  38d  99
2025 06 19 09  15 28 42.713   +08 02 26.74  .65498 1.5396 133.1 20.9  38d  99
2025 06 19 10  15 28 42.466   +08 01 37.96  .65554 1.5400 133.0 21.0  38d  99
2025 06 19 11  15 28 42.223   +08 00 49.21  .65611 1.5403 133.0 21.0  38d  99
2025 06 19 12  15 28 41.985   +08 00 00.49  .65668 1.5407 133.0 21.0  38d 100
2025 06 19 13  15 28 41.751   +07 59 11.80  .65725 1.5411 133.0 21.0  38d 100
2025 06 19 14  15 28 41.521   +07 58 23.14  .65782 1.5414 133.0 21.0  38d 100